Location: Mountain View
(37.3861°N, 122.0839°W)
Time: 20:45:06
(UTC-07:00)

Envisat - Pass Details

Date: 12 May 2026
Orbit: 761 x 763 km, 98.4° (Epoch: 9 June)

Event Time Altitude Azimuth Distance (km) Brightness Sun altitude
Rises 03:50:24 0° 11° (N) 3,230 7.2 -22.1°
Reaches altitude 10° 03:52:42 10° 10° (N) 2,300 6.2 -21.8°
Maximum altitude 03:57:46 79° 285° (WNW) 780 2.9 -21.1°
Enters shadow 03:59:22 44° 207° (SSW) 1,038 3.2 -20.9°
